Location: Buckenweiler
(49.0667°N, 10.2500°E)
Time: 18:47:16
(UTC+00:00)

Cosmos 921 Rocket - Pass Details

Date: 18 January 2026
Orbit: 564 x 620 km, 75.8° (Epoch: 18 February)

Event Time Altitude Azimuth Distance (km) Brightness Sun altitude
Exits shadow 05:21:49 32° 278° (W) 1,008 3.6 -16.6°
Maximum altitude 05:22:28 34° 298° (WNW) 968 3.5 -16.5°
Drops below altitude 10° 05:26:21 10° 5° (N) 1,899 5.5 -15.8°
Sets 05:28:43 0° 14° (NNE) 2,794 6.4 -15.5°
